Location: Hopkins Observatory
(42.6965°N, 73.1843°W)
Time: 21:49:06
(UTC-04:00)

UOSAT-12 - Visible Passes

Search period start: 18 April 2014 00:00
Search period end: 28 April 2014 00:00
Orbit: 598 x 661 km, 64.6° (Epoch: 18 April)

Date Brightness Start Highest point End Pass type
(mag) Time Alt. Az. Time Alt. Az. Time Alt. Az.
18 Apr 9.8 01:22:45 10° N 01:25:38 16° NE 01:26:37 15° NE visible
18 Apr 8.8 03:01:46 10° NNW 03:03:53 26° NNW 03:03:53 26° NNW visible
18 Apr 10.4 20:38:19 10° NW 20:39:22 11° NNW 20:40:26 10° NNW visible
19 Apr 9.3 01:42:44 10° NNW 01:45:43 25° NNE 01:45:43 25° NNE visible
19 Apr 9.6 03:22:35 10° NW 03:23:00 12° NW 03:23:00 12° NW visible
20 Apr 10.1 00:25:03 10° NNE 00:26:22 11° NNE 00:27:42 10° NE visible
20 Apr 9.2 02:03:03 10° NNW 02:05:05 24° NNW 02:05:05 24° NNW visible
21 Apr 9.6 00:44:23 10° N 00:47:17 18° NNE 00:47:17 18° NNE visible
21 Apr 9.5 02:23:38 10° NW 02:24:36 16° NW 02:24:36 16° NW visible
22 Apr 9.3 01:04:28 10° NNW 01:06:54 24° N 01:06:54 24° N visible
22 Apr 9.8 23:46:21 10° N 23:48:25 13° NNE 23:49:16 12° NE visible
23 Apr 9.4 01:24:51 10° NNW 01:26:35 22° NNW 01:26:35 22° NNW visible
24 Apr 9.4 00:06:02 10° N 00:09:01 20° NNE 00:09:01 20° NNE visible
24 Apr 9.7 01:45:31 10° NW 01:46:20 15° NW 01:46:20 15° NW visible
25 Apr 9.1 00:26:13 10° NNW 00:28:48 27° N 00:28:48 27° N visible
25 Apr 9.6 23:07:50 10° N 23:10:25 14° NE 23:11:19 14° NE visible
26 Apr 9.2 00:46:40 10° NNW 00:48:38 25° NNW 00:48:38 25° NNW visible
26 Apr 9.1 23:27:43 10° NNW 23:31:11 24° NE 23:31:11 24° NE visible
27 Apr 9.6 01:07:25 10° NW 01:08:30 17° NW 01:08:30 17° NW visible
27 Apr 9.9 22:10:46 10° NNE 22:11:07 10° NNE 22:11:28 10° NNE visible
27 Apr 8.7 23:47:58 10° NNW 23:51:05 34° N 23:51:05 34° N visible
